| time (UTC) | temp F | wind direction | speed knots | gust knots | rain 1hr in | rain 24hr in | rain mn in | humidity % | barometer mb |
| 20260508064545 | 39 | 0 | 0.0 | 0.0 | 0.00 | 0.02 | 0.00 | 93 | 1015.5 |
| 20260508064015 | 39 | 0 | 0.0 | 0.0 | 0.00 | 0.02 | 0.00 | 93 | 1015.4 |
| 20260508063512 | 39 | 0 | 0.0 | 0.0 | 0.00 | 0.02 | 0.00 | 93 | 1015.5 |
| 20260508063036 | 39 | 0 | 0.0 | 0.0 | 0.00 | 0.02 | 0.00 | 93 | 1015.4 |
| 20260508062515 | 40 | 0 | 0.0 | 0.0 | 0.00 | 0.02 | 0.00 | 93 | 1015.5 |
| 20260508062016 | 40 | 0 | 0.0 | 0.0 | 0.00 | 0.02 | 0.00 | 92 | 1015.4 |
| 20260508061536 | 40 | 0 | 0.0 | 0.0 | 0.00 | 0.02 | 0.00 | 92 | 1015.4 |
| 20260508061018 | 40 | 0 | 0.0 | 0.0 | 0.00 | 0.02 | 0.00 | 93 | 1015.4 |
| 20260508060515 | 40 | 0 | 0.0 | 0.0 | 0.00 | 0.02 | 0.00 | 93 | 1015.4 |
| 20260508060031 | 40 | 0 | 0.0 | 0.0 | 0.00 | 0.02 | 0.00 | 93 | 1015.5 |
| 20260508055514 | 40 | 0 | 0.0 | 0.0 | 0.00 | 0.02 | 0.00 | 92 | 1015.4 |
| 20260508055015 | 40 | 0 | 0.0 | 0.0 | 0.00 | 0.02 | 0.00 | 92 | 1015.2 |
| 20260508054531 | 41 | 0 | 0.0 | 0.0 | 0.00 | 0.02 | 0.00 | 92 | 1015.3 |
| 20260508054014 | 41 | 0 | 0.0 | 0.0 | 0.00 | 0.02 | 0.00 | 92 | 1015.2 |
| 20260508053517 | 41 | 0 | 0.0 | 0.0 | 0.00 | 0.02 | 0.00 | 92 | 1015.1 |
| 20260508053032 | 41 | 0 | 0.0 | 0.0 | 0.00 | 0.02 | 0.00 | 92 | 1014.9 |
| 20260508052518 | 41 | 0 | 0.0 | 0.0 | 0.00 | 0.02 | 0.00 | 92 | 1014.9 |
| 20260508052014 | 41 | 0 | 0.0 | 0.0 | 0.00 | 0.02 | 0.00 | 92 | 1014.7 |
| 20260508051532 | 41 | 0 | 0.0 | 0.0 | 0.00 | 0.02 | 0.00 | 92 | 1014.7 |
| 20260508051015 | 41 | 0 | 0.0 | 0.0 | 0.00 | 0.02 | 0.00 | 92 | 1014.7 |
| 20260508050516 | 41 | 0 | 0.0 | 0.0 | 0.00 | 0.02 | 0.00 | 92 | 1014.6 |
| 20260508050036 | 42 | 0 | 0.0 | 0.0 | 0.00 | 0.02 | 0.00 | 92 | 1014.5 |
| 20260508045515 | 42 | 0 | 0.0 | 2.6 | 0.00 | 0.03 | 0.00 | 92 | 1014.4 |
| 20260508045013 | 42 | 0 | 0.0 | 2.6 | 0.00 | 0.03 | 0.00 | 92 | 1014.4 |
| 20260508044534 | 42 | 0 | 0.0 | 2.6 | 0.00 | 0.03 | 0.00 | 92 | 1014.6 |
| 20260508044016 | 42 | 0 | 0.0 | 2.6 | 0.00 | 0.03 | 0.00 | 92 | 1014.5 |
| 20260508043519 | 42 | 0 | 0.0 | 0.0 | 0.00 | 0.03 | 0.00 | 92 | 1014.4 |
| 20260508043036 | 43 | 0 | 0.0 | 0.0 | 0.00 | 0.03 | 0.00 | 92 | 1014.4 |
| 20260508042513 | 43 | 0 | 0.0 | 0.0 | 0.00 | 0.03 | 0.00 | 92 | 1014.4 |
| 20260508042014 | 43 | 0 | 0.0 | 0.0 | 0.00 | 0.03 | 0.00 | 92 | 1014.5 |
| 20260508041532 | 43 | 0 | 0.0 | 0.0 | 0.00 | 0.03 | 0.00 | 92 | 1014.5 |
| 20260508041013 | 43 | 0 | 0.0 | 1.7 | 0.00 | 0.03 | 0.00 | 91 | 1014.3 |
| 20260508040515 | 43 | 0 | 0.0 | 1.7 | 0.00 | 0.03 | 0.00 | 91 | 1014.3 |
| 20260508040035 | 43 | 360 | 0.0 | 3.5 | 0.00 | 0.03 | 0.00 | 91 | 1014.2 |
| 20260508035520 | 44 | 0 | 0.9 | 3.5 | 0.00 | 0.03 | 0.03 | 91 | 1014.1 |
| 20260508035015 | 44 | 360 | 0.9 | 3.5 | 0.00 | 0.03 | 0.03 | 91 | 1014.1 |
| 20260508034532 | 44 | 0 | 0.0 | 0.0 | 0.00 | 0.03 | 0.03 | 91 | 1014.0 |
| 20260508034015 | 44 | 0 | 0.0 | 0.0 | 0.00 | 0.03 | 0.03 | 90 | 1014.0 |
| 20260508033515 | 45 | 0 | 0.0 | 0.0 | 0.00 | 0.03 | 0.03 | 90 | 1014.0 |
| 20260508033035 | 45 | 0 | 0.0 | 0.0 | 0.00 | 0.03 | 0.03 | 90 | 1014.1 |
| 20260508032516 | 45 | 0 | 0.0 | 0.0 | 0.00 | 0.03 | 0.03 | 89 | 1014.0 |
| 20260508032014 | 45 | 0 | 0.0 | 0.0 | 0.00 | 0.03 | 0.03 | 89 | 1013.8 |
| 20260508031531 | 45 | 0 | 0.0 | 2.6 | 0.00 | 0.03 | 0.03 | 90 | 1013.7 |
| 20260508031015 | 45 | 0 | 0.0 | 2.6 | 0.00 | 0.03 | 0.03 | 90 | 1013.6 |
| 20260508030514 | 46 | 360 | 0.0 | 2.6 | 0.00 | 0.03 | 0.03 | 90 | 1013.5 |
| 20260508030034 | 46 | 360 | 0.0 | 2.6 | 0.00 | 0.03 | 0.03 | 90 | 1013.7 |
| 20260508025515 | 46 | 0 | 0.0 | 2.6 | 0.00 | 0.05 | 0.03 | 89 | 1013.6 |
| 20260508025015 | 46 | 0 | 0.0 | 0.0 | 0.00 | 0.05 | 0.03 | 89 | 1013.5 |
| 20260508024534 | 46 | 0 | 0.0 | 0.0 | 0.00 | 0.05 | 0.03 | 89 | 1013.5 |
| 20260508024013 | 46 | 0 | 0.0 | 1.7 | 0.00 | 0.05 | 0.03 | 88 | 1013.5 |
| 20260508023515 | 47 | 0 | 0.0 | 2.6 | 0.00 | 0.05 | 0.03 | 88 | 1013.4 |
| 20260508023036 | 47 | 0 | 0.0 | 2.6 | 0.00 | 0.05 | 0.03 | 88 | 1013.3 |
| 20260508022514 | 47 | 0 | 0.0 | 1.7 | 0.00 | 0.05 | 0.03 | 88 | 1013.2 |
| 20260508022015 | 47 | 360 | 0.0 | 0.0 | 0.00 | 0.05 | 0.03 | 87 | 1013.0 |
| 20260508021534 | 47 | 0 | 0.0 | 0.0 | 0.00 | 0.05 | 0.03 | 88 | 1013.0 |
| 20260508021016 | 47 | 0 | 0.0 | 2.6 | 0.00 | 0.05 | 0.03 | 87 | 1012.9 |
| 20260508020515 | 48 | 0 | 0.0 | 2.6 | 0.00 | 0.05 | 0.03 | 87 | 1012.8 |
| 20260508020033 | 48 | 0 | 0.0 | 1.7 | 0.00 | 0.05 | 0.03 | 87 | 1012.9 |
| 20260508015515 | 48 | 0 | 0.0 | 1.7 | 0.00 | 0.05 | 0.03 | 87 | 1012.7 |
| 20260508015015 | 48 | 0 | 0.0 | 1.7 | 0.00 | 0.05 | 0.03 | 88 | 1012.5 |
| 20260508014534 | 48 | 0 | 0.0 | 1.7 | 0.00 | 0.05 | 0.03 | 87 | 1012.5 |
| 20260508014017 | 48 | 0 | 0.0 | 4.3 | 0.00 | 0.05 | 0.03 | 87 | 1012.5 |
| 20260508013517 | 48 | 0 | 0.9 | 4.3 | 0.00 | 0.05 | 0.03 | 86 | 1012.5 |
| 20260508013032 | 49 | 0 | 0.0 | 0.9 | 0.00 | 0.05 | 0.03 | 86 | 1012.5 |
| 20260508012518 | 49 | 0 | 0.0 | 0.0 | 0.00 | 0.05 | 0.03 | 86 | 1012.4 |
| 20260508012015 | 49 | 0 | 0.0 | 1.7 | 0.00 | 0.05 | 0.03 | 86 | 1012.2 |
| 20260508011544 | 49 | 0 | 0.0 | 1.7 | 0.00 | 0.05 | 0.03 | 85 | 1012.2 |
| 20260508011015 | 50 | 0 | 0.0 | 2.6 | 0.00 | 0.05 | 0.03 | 84 | 1012.2 |
| 20260508010513 | 50 | 58 | 0.0 | 2.6 | 0.00 | 0.05 | 0.03 | 84 | 1012.1 |
| 20260508010035 | 50 | 0 | 0.0 | 0.0 | 0.00 | 0.05 | 0.03 | 83 | 1012.0 |
| 20260508005520 | 51 | 0 | 0.0 | 0.0 | 0.00 | 0.05 | 0.03 | 82 | 1011.8 |
| 20260508005016 | 51 | 0 | 0.0 | 0.0 | 0.00 | 0.05 | 0.03 | 81 | 1011.8 |
| 20260508004545 | 52 | 0 | 0.0 | 0.0 | 0.00 | 0.05 | 0.03 | 81 | 1011.8 |
| 20260508004016 | 52 | 0 | 0.0 | 0.0 | 0.00 | 0.05 | 0.03 | 79 | 1011.8 |
| 20260508003515 | 53 | 0 | 0.0 | 1.7 | 0.00 | 0.05 | 0.03 | 78 | 1011.9 |
| 20260508003037 | 54 | 0 | 0.0 | 2.6 | 0.00 | 0.05 | 0.03 | 76 | 1011.8 |
| 20260508002516 | 54 | 78 | 0.0 | 2.6 | 0.00 | 0.05 | 0.03 | 74 | 1011.7 |
| 20260508002016 | 55 | 0 | 0.0 | 2.6 | 0.00 | 0.05 | 0.03 | 72 | 1011.7 |
| 20260508001536 | 56 | 0 | 0.0 | 2.6 | 0.00 | 0.05 | 0.03 | 70 | 1011.7 |
| 20260508001012 | 56 | 74 | 0.0 | 2.6 | 0.00 | 0.05 | 0.03 | 68 | 1011.5 |
| 20260508000518 | 57 | 0 | 0.0 | 2.6 | 0.00 | 0.05 | 0.03 | 66 | 1011.6 |
| 20260508000031 | 57 | 0 | 0.0 | 2.6 | 0.00 | 0.05 | 0.03 | 66 | 1011.5 |
| 20260507235512 | 57 | 250 | 0.0 | 1.7 | 0.00 | 0.05 | 0.03 | 67 | 1011.5 |
| 20260507235020 | 58 | 0 | 0.0 | 1.7 | 0.00 | 0.05 | 0.03 | 64 | 1011.4 |
| 20260507234532 | 59 | 113 | 0.0 | 2.6 | 0.00 | 0.05 | 0.03 | 61 | 1011.3 |
| 20260507234012 | 59 | 0 | 0.0 | 2.6 | 0.00 | 0.05 | 0.03 | 63 | 1011.3 |
| 20260507233512 | 60 | 0 | 0.0 | 1.7 | 0.00 | 0.05 | 0.03 | 58 | 1011.3 |
| 20260507233033 | 60 | 0 | 0.0 | 2.6 | 0.00 | 0.05 | 0.03 | 56 | 1011.1 |
| 20260507232520 | 60 | 301 | 0.0 | 2.6 | 0.00 | 0.05 | 0.03 | 55 | 1011.0 |
| 20260507232013 | 61 | 0 | 0.0 | 6.1 | 0.00 | 0.05 | 0.03 | 56 | 1010.7 |
| 20260507231534 | 61 | 290 | 0.0 | 6.1 | 0.00 | 0.05 | 0.03 | 53 | 1010.8 |
| 20260507231012 | 61 | 242 | 0.9 | 2.6 | 0.00 | 0.05 | 0.03 | 57 | 1010.7 |
| 20260507230514 | 61 | 0 | 0.0 | 5.2 | 0.00 | 0.05 | 0.03 | 56 | 1010.7 |
| 20260507230036 | 61 | 0 | 0.9 | 5.2 | 0.00 | 0.05 | 0.03 | 56 | 1010.6 |
| 20260507225513 | 61 | 298 | 0.9 | 5.2 | 0.00 | 0.05 | 0.03 | 55 | 1010.6 |
| 20260507225017 | 61 | 0 | 0.9 | 5.2 | 0.00 | 0.05 | 0.03 | 54 | 1010.4 |
| 20260507224537 | 61 | 242 | 0.9 | 5.2 | 0.00 | 0.05 | 0.03 | 54 | 1010.4 |
| 20260507224015 | 61 | 288 | 0.0 | 4.3 | 0.00 | 0.05 | 0.03 | 56 | 1010.4 |
| 20260507223515 | 62 | 264 | 0.9 | 4.3 | 0.00 | 0.05 | 0.03 | 56 | 1010.2 |
| 20260507223031 | 62 | 273 | 1.7 | 4.3 | 0.00 | 0.05 | 0.03 | 54 | 1010.3 |
| 20260507222514 | 62 | 246 | 1.7 | 6.1 | 0.00 | 0.05 | 0.03 | 54 | 1010.3 |
| 20260507222013 | 62 | 311 | 1.7 | 6.1 | 0.00 | 0.05 | 0.03 | 53 | 1010.4 |
| 20260507221534 | 62 | 260 | 1.7 | 4.3 | 0.00 | 0.05 | 0.03 | 53 | 1010.2 |
| 20260507221011 | 63 | 257 | 1.7 | 3.5 | 0.00 | 0.05 | 0.03 | 53 | 1010.2 |
| 20260507220513 | 63 | 0 | 0.9 | 5.2 | 0.00 | 0.05 | 0.03 | 54 | 1010.2 |
| 20260507220032 | 63 | 177 | 1.7 | 5.2 | 0.00 | 0.05 | 0.03 | 54 | 1010.1 |
| 20260507215515 | 63 | 240 | 1.7 | 4.3 | 0.00 | 0.05 | 0.03 | 55 | 1010.1 |
| 20260507215015 | 63 | 252 | 0.9 | 4.3 | 0.00 | 0.05 | 0.03 | 54 | 1009.9 |
| 20260507214531 | 63 | 296 | 0.9 | 4.3 | 0.00 | 0.05 | 0.03 | 56 | 1009.8 |
| 20260507214014 | 63 | 0 | 0.9 | 6.1 | 0.00 | 0.05 | 0.03 | 56 | 1009.8 |
| 20260507213517 | 63 | 290 | 1.7 | 6.1 | 0.00 | 0.05 | 0.03 | 56 | 1009.9 |
| 20260507213033 | 64 | 277 | 1.7 | 4.3 | 0.00 | 0.05 | 0.03 | 55 | 1009.8 |
| 20260507212515 | 64 | 107 | 1.7 | 5.2 | 0.00 | 0.05 | 0.03 | 57 | 1009.8 |
| 20260507212016 | 64 | 0 | 0.9 | 7.0 | 0.00 | 0.05 | 0.03 | 55 | 1009.8 |
| 20260507211532 | 64 | 329 | 1.7 | 7.0 | 0.00 | 0.05 | 0.03 | 54 | 1009.6 |
| 20260507211015 | 65 | 285 | 2.6 | 7.0 | 0.00 | 0.05 | 0.03 | 56 | 1009.7 |
| 20260507210519 | 64 | 0 | 0.9 | 4.3 | 0.00 | 0.05 | 0.03 | 59 | 1009.6 |
| 20260507210033 | 64 | 279 | 0.0 | 5.2 | 0.00 | 0.05 | 0.03 | 59 | 1009.4 |
| 20260507205515 | 64 | 253 | 1.7 | 5.2 | 0.00 | 0.05 | 0.03 | 56 | 1009.4 |
| 20260507205015 | 65 | 200 | 0.9 | 5.2 | 0.00 | 0.05 | 0.03 | 59 | 1009.4 |
| 20260507204530 | 65 | 280 | 0.9 | 3.5 | 0.00 | 0.05 | 0.03 | 59 | 1009.3 |
| 20260507204015 | 64 | 336 | 0.9 | 5.2 | 0.00 | 0.05 | 0.03 | 59 | 1009.4 |
| 20260507203516 | 64 | 225 | 0.0 | 5.2 | 0.00 | 0.05 | 0.03 | 61 | 1009.2 |
| 20260507203032 | 63 | 0 | 1.7 | 3.5 | 0.00 | 0.05 | 0.03 | 67 | 1009.3 |
| 20260507202514 | 63 | 0 | 0.0 | 4.3 | 0.00 | 0.05 | 0.03 | 63 | 1009.5 |
| 20260507202015 | 64 | 0 | 0.0 | 4.3 | 0.00 | 0.05 | 0.03 | 64 | 1009.5 |
| 20260507201532 | 64 | 320 | 0.9 | 4.3 | 0.00 | 0.05 | 0.03 | 65 | 1009.6 |
| 20260507201015 | 64 | 0 | 0.0 | 5.2 | 0.00 | 0.05 | 0.03 | 67 | 1009.4 |
| 20260507200518 | 63 | 0 | 0.0 | 5.2 | 0.00 | 0.05 | 0.03 | 70 | 1009.6 |
| 20260507200036 | 63 | 189 | 0.9 | 5.2 | 0.00 | 0.05 | 0.03 | 69 | 1009.7 |
| 20260507195515 | 62 | 0 | 0.0 | 2.6 | 0.00 | 0.05 | 0.03 | 71 | 1009.7 |
| 20260507195015 | 61 | 0 | 0.0 | 1.7 | 0.00 | 0.05 | 0.03 | 73 | 1009.9 |
| 20260507194532 | 60 | 0 | 0.0 | 3.5 | 0.00 | 0.05 | 0.03 | 73 | 1009.9 |
| 20260507194015 | 60 | 0 | 0.0 | 3.5 | 0.00 | 0.05 | 0.03 | 73 | 1010.2 |
| 20260507193515 | 60 | 0 | 0.0 | 1.7 | 0.00 | 0.05 | 0.03 | 77 | 1010.3 |
| 20260507193032 | 59 | 0 | 0.0 | 1.7 | 0.00 | 0.05 | 0.03 | 78 | 1010.3 |
| 20260507192515 | 59 | 178 | 0.0 | 0.9 | 0.00 | 0.05 | 0.03 | 76 | 1010.7 |
| 20260507192015 | 58 | 0 | 0.0 | 0.0 | 0.00 | 0.05 | 0.03 | 77 | 1010.9 |
| 20260507191532 | 58 | 0 | 0.0 | 0.0 | 0.00 | 0.05 | 0.03 | 79 | 1010.9 |
| 20260507191014 | 57 | 0 | 0.0 | 0.0 | 0.00 | 0.05 | 0.03 | 81 | 1010.9 |
| 20260507190512 | 57 | 0 | 0.0 | 1.7 | 0.00 | 0.05 | 0.03 | 80 | 1010.8 |
| 20260507190040 | 57 | 0 | 0.0 | 1.7 | 0.00 | 0.05 | 0.03 | 80 | 1011.0 |
| 20260507185515 | 57 | 0 | 0.0 | 3.5 | 0.00 | 0.05 | 0.03 | 79 | 1011.2 |
| 20260507185011 | 57 | 0 | 0.9 | 3.5 | 0.00 | 0.05 | 0.03 | 82 | 1011.2 |
| 20260507184538 | 56 | 0 | 0.0 | 1.7 | 0.00 | 0.05 | 0.03 | 85 | 1011.4 |
| 20260507184014 | 56 | 0 | 0.0 | 0.9 | 0.00 | 0.05 | 0.03 | 84 | 1011.4 |
| 20260507183513 | 56 | 0 | 0.0 | 0.0 | 0.00 | 0.05 | 0.03 | 86 | 1011.4 |
| 20260507183037 | 56 | 0 | 0.0 | 0.0 | 0.00 | 0.05 | 0.03 | 86 | 1011.4 |
| 20260507182512 | 56 | 0 | 0.0 | 0.0 | 0.01 | 0.05 | 0.03 | 86 | 1011.3 |
| 20260507182016 | 55 | 0 | 0.0 | 0.0 | 0.02 | 0.05 | 0.03 | 87 | 1011.3 |
| 20260507181532 | 55 | 0 | 0.0 | 0.0 | 0.02 | 0.05 | 0.03 | 89 | 1011.3 |
| 20260507181015 | 55 | 0 | 0.0 | 0.0 | 0.02 | 0.05 | 0.03 | 89 | 1011.5 |
| 20260507180515 | 56 | 0 | 0.0 | 0.0 | 0.02 | 0.05 | 0.03 | 91 | 1011.4 |
| 20260507180034 | 55 | 0 | 0.0 | 0.0 | 0.02 | 0.05 | 0.03 | 90 | 1011.2 |
| 20260507175515 | 55 | 0 | 0.0 | 0.0 | 0.02 | 0.05 | 0.03 | 88 | 1011.4 |
| 20260507175017 | 55 | 0 | 0.0 | 0.0 | 0.02 | 0.05 | 0.03 | 87 | 1011.3 |
| 20260507174536 | 55 | 0 | 0.0 | 0.0 | 0.02 | 0.05 | 0.03 | 89 | 1011.5 |
| 20260507174014 | 55 | 0 | 0.0 | 0.0 | 0.02 | 0.05 | 0.03 | 90 | 1011.5 |
| 20260507173516 | 55 | 0 | 0.0 | 0.0 | 0.02 | 0.05 | 0.03 | 89 | 1011.5 |
| 20260507173035 | 55 | 0 | 0.0 | 0.0 | 0.02 | 0.05 | 0.03 | 89 | 1011.4 |
| 20260507172517 | 55 | 0 | 0.0 | 0.0 | 0.01 | 0.04 | 0.02 | 87 | 1011.7 |
| 20260507172014 | 55 | 0 | 0.0 | 0.0 | 0.00 | 0.03 | 0.01 | 86 | 1011.6 |
| 20260507171534 | 55 | 0 | 0.0 | 0.0 | 0.00 | 0.03 | 0.01 | 83 | 1011.8 |
| 20260507171015 | 56 | 0 | 0.0 | 0.0 | 0.00 | 0.03 | 0.01 | 86 | 1011.6 |
| 20260507170517 | 56 | 0 | 0.0 | 0.0 | 0.00 | 0.03 | 0.01 | 86 | 1011.6 |
| 20260507170035 | 55 | 0 | 0.0 | 1.7 | 0.00 | 0.03 | 0.01 | 85 | 1011.8 |
| 20260507165514 | 55 | 0 | 0.0 | 1.7 | 0.00 | 0.03 | 0.01 | 87 | 1011.9 |
| 20260507165015 | 55 | 0 | 0.0 | 1.7 | 0.00 | 0.03 | 0.01 | 85 | 1012.0 |
| 20260507164533 | 55 | 0 | 0.0 | 2.6 | 0.00 | 0.03 | 0.01 | 84 | 1011.9 |
| 20260507164020 | 56 | 0 | 0.0 | 2.6 | 0.00 | 0.03 | 0.01 | 84 | 1011.9 |
| 20260507163514 | 56 | 0 | 0.0 | 2.6 | 0.00 | 0.03 | 0.01 | 84 | 1011.6 |
| 20260507163033 | 55 | 0 | 0.0 | 2.6 | 0.00 | 0.03 | 0.01 | 85 | 1011.7 |
| 20260507162515 | 56 | 0 | 0.0 | 0.0 | 0.00 | 0.03 | 0.01 | 86 | 1011.7 |
| 20260507162017 | 56 | 0 | 0.0 | 0.0 | 0.00 | 0.03 | 0.01 | 88 | 1011.5 |
| 20260507161531 | 56 | 0 | 0.0 | 0.0 | 0.00 | 0.03 | 0.01 | 87 | 1011.7 |
| 20260507161014 | 55 | 0 | 0.0 | 0.0 | 0.00 | 0.03 | 0.01 | 88 | 1011.7 |
| 20260507160512 | 56 | 0 | 0.0 | 0.0 | 0.00 | 0.03 | 0.01 | 89 | 1011.6 |
| 20260507160034 | 55 | 0 | 0.0 | 0.0 | 0.00 | 0.03 | 0.01 | 88 | 1011.8 |
| 20260507155512 | 55 | 0 | 0.0 | 0.0 | 0.00 | 0.03 | 0.01 | 87 | 1011.9 |
| 20260507155015 | 55 | 0 | 0.0 | 1.7 | 0.00 | 0.03 | 0.01 | 87 | 1011.8 |
| 20260507154533 | 56 | 0 | 0.0 | 1.7 | 0.00 | 0.03 | 0.01 | 85 | 1012.0 |
| 20260507154016 | 56 | 0 | 0.0 | 2.6 | 0.00 | 0.03 | 0.01 | 82 | 1012.1 |
| 20260507153515 | 57 | 0 | 0.0 | 2.6 | 0.00 | 0.03 | 0.01 | 79 | 1012.3 |
| 20260507153033 | 57 | 0 | 0.0 | 2.6 | 0.00 | 0.03 | 0.01 | 80 | 1012.2 |
| 20260507152515 | 57 | 0 | 0.0 | 3.5 | 0.00 | 0.03 | 0.01 | 79 | 1012.1 |
| 20260507152015 | 58 | 0 | 0.0 | 3.5 | 0.00 | 0.03 | 0.01 | 79 | 1012.0 |
| 20260507151534 | 58 | 242 | 0.9 | 3.5 | 0.00 | 0.03 | 0.01 | 80 | 1011.8 |
| 20260507151016 | 57 | 0 | 0.9 | 3.5 | 0.00 | 0.03 | 0.01 | 79 | 1011.9 |
| 20260507150511 | 58 | 0 | 0.0 | 3.5 | 0.00 | 0.03 | 0.01 | 79 | 1012.0 |
| 20260507150031 | 58 | 0 | 0.0 | 0.0 | 0.00 | 0.03 | 0.01 | 82 | 1011.9 |
| 20260507145512 | 58 | 0 | 0.0 | 0.0 | 0.00 | 0.03 | 0.01 | 82 | 1011.9 |
| 20260507145012 | 58 | 0 | 0.0 | 0.0 | 0.00 | 0.03 | 0.01 | 80 | 1011.9 |
| 20260507144534 | 58 | 0 | 0.0 | 0.0 | 0.00 | 0.03 | 0.01 | 81 | 1011.8 |
| 20260507144016 | 58 | 0 | 0.0 | 0.0 | 0.00 | 0.03 | 0.01 | 81 | 1011.9 |
| 20260507143518 | 58 | 0 | 0.0 | 0.0 | 0.00 | 0.03 | 0.01 | 82 | 1011.7 |
| 20260507143034 | 58 | 0 | 0.0 | 0.0 | 0.00 | 0.03 | 0.01 | 82 | 1011.8 |
| 20260507142516 | 58 | 0 | 0.0 | 1.7 | 0.00 | 0.03 | 0.01 | 83 | 1011.5 |
| 20260507142011 | 58 | 0 | 0.0 | 1.7 | 0.00 | 0.03 | 0.01 | 82 | 1011.6 |
| 20260507141531 | 58 | 286 | 0.0 | 1.7 | 0.00 | 0.03 | 0.01 | 81 | 1011.6 |
| 20260507141014 | 59 | 0 | 0.0 | 2.6 | 0.00 | 0.03 | 0.01 | 80 | 1011.7 |
| 20260507140516 | 59 | 0 | 0.0 | 2.6 | 0.00 | 0.03 | 0.01 | 82 | 1011.7 |
| 20260507140036 | 59 | 250 | 0.0 | 2.6 | 0.00 | 0.03 | 0.01 | 82 | 1011.5 |
| 20260507135512 | 59 | 0 | 0.0 | 0.0 | 0.00 | 0.03 | 0.01 | 83 | 1011.4 |
| 20260507135015 | 58 | 0 | 0.0 | 0.9 | 0.00 | 0.03 | 0.01 | 83 | 1011.5 |
| 20260507134531 | 58 | 0 | 0.0 | 0.9 | 0.00 | 0.03 | 0.01 | 81 | 1012.0 |
| 20260507134014 | 58 | 0 | 0.0 | 0.0 | 0.00 | 0.03 | 0.01 | 81 | 1012.1 |
| 20260507133513 | 58 | 0 | 0.0 | 2.6 | 0.00 | 0.03 | 0.01 | 84 | 1011.9 |
| 20260507133031 | 58 | 0 | 0.0 | 2.6 | 0.00 | 0.03 | 0.01 | 82 | 1012.2 |
| 20260507132513 | 58 | 0 | 0.0 | 0.0 | 0.00 | 0.03 | 0.01 | 85 | 1012.0 |
| 20260507132014 | 58 | 0 | 0.0 | 0.0 | 0.00 | 0.03 | 0.01 | 86 | 1012.0 |
| 20260507131535 | 58 | 0 | 0.0 | 2.6 | 0.00 | 0.03 | 0.01 | 84 | 1012.2 |
| 20260507131015 | 58 | 0 | 0.0 | 2.6 | 0.00 | 0.03 | 0.01 | 84 | 1012.2 |
| 20260507130519 | 58 | 0 | 0.0 | 0.0 | 0.00 | 0.03 | 0.01 | 84 | 1012.2 |
| 20260507130043 | 58 | 0 | 0.0 | 0.0 | 0.00 | 0.03 | 0.01 | 85 | 1012.1 |
| 20260507125519 | 58 | 0 | 0.0 | 0.0 | 0.00 | 0.03 | 0.01 | 85 | 1012.0 |
| 20260507125016 | 58 | 0 | 0.0 | 0.0 | 0.00 | 0.03 | 0.01 | 84 | 1012.0 |
| 20260507124536 | 58 | 0 | 0.0 | 0.0 | 0.00 | 0.03 | 0.01 | 85 | 1011.8 |
| 20260507124016 | 58 | 0 | 0.0 | 0.0 | 0.00 | 0.03 | 0.01 | 86 | 1012.0 |
| 20260507123516 | 58 | 0 | 0.0 | 0.0 | 0.00 | 0.03 | 0.01 | 88 | 1011.8 |
| 20260507123042 | 58 | 0 | 0.0 | 0.0 | 0.00 | 0.03 | 0.01 | 88 | 1012.0 |
| 20260507122516 | 58 | 0 | 0.0 | 0.0 | 0.00 | 0.03 | 0.01 | 88 | 1012.0 |
| 20260507122014 | 58 | 0 | 0.0 | 0.0 | 0.00 | 0.03 | 0.01 | 89 | 1011.9 |
| 20260507121541 | 57 | 0 | 0.0 | 0.0 | 0.00 | 0.03 | 0.01 | 91 | 1011.8 |
| 20260507121021 | 57 | 0 | 0.0 | 0.0 | 0.00 | 0.03 | 0.01 | 91 | 1011.9 |
| 20260507120516 | 57 | 0 | 0.0 | 0.0 | 0.00 | 0.03 | 0.01 | 93 | 1011.9 |
| 20260507120033 | 57 | 0 | 0.0 | 0.0 | 0.00 | 0.03 | 0.01 | 94 | 1012.2 |
| 20260507115517 | 57 | 0 | 0.0 | 0.0 | 0.00 | 0.03 | 0.01 | 94 | 1011.9 |
| 20260507115016 | 57 | 0 | 0.0 | 0.0 | 0.00 | 0.03 | 0.01 | 94 | 1012.0 |
| 20260507114532 | 57 | 0 | 0.0 | 0.0 | 0.00 | 0.03 | 0.01 | 94 | 1011.8 |
| 20260507114018 | 57 | 0 | 0.0 | 0.0 | 0.00 | 0.03 | 0.01 | 94 | 1011.9 |
| 20260507113517 | 57 | 0 | 0.0 | 0.0 | 0.00 | 0.03 | 0.01 | 95 | 1011.8 |
| 20260507113035 | 57 | 0 | 0.0 | 0.0 | 0.00 | 0.03 | 0.01 | 96 | 1011.8 |
| 20260507112514 | 57 | 0 | 0.0 | 0.0 | 0.00 | 0.03 | 0.01 | 96 | 1011.6 |
| 20260507112018 | 57 | 0 | 0.0 | 0.0 | 0.00 | 0.03 | 0.01 | 96 | 1011.7 |
| 20260507111533 | 56 | 0 | 0.0 | 0.0 | 0.00 | 0.03 | 0.01 | 96 | 1011.4 |
| 20260507111013 | 56 | 0 | 0.0 | 0.0 | 0.00 | 0.03 | 0.01 | 96 | 1011.2 |
| 20260507110517 | 56 | 0 | 0.0 | 0.0 | 0.00 | 0.03 | 0.01 | 96 | 1011.2 |
| 20260507110034 | 56 | 0 | 0.0 | 0.0 | 0.00 | 0.03 | 0.01 | 96 | 1011.0 |
| 20260507105513 | 56 | 0 | 0.0 | 0.0 | 0.00 | 0.03 | 0.01 | 96 | 1011.2 |
| 20260507105016 | 56 | 0 | 0.0 | 0.0 | 0.00 | 0.03 | 0.01 | 96 | 1011.3 |
| 20260507104533 | 56 | 0 | 0.0 | 0.0 | 0.00 | 0.03 | 0.01 | 96 | 1011.2 |
| 20260507104016 | 56 | 0 | 0.0 | 0.0 | 0.00 | 0.03 | 0.01 | 96 | 1011.3 |
| 20260507103516 | 56 | 0 | 0.0 | 0.0 | 0.00 | 0.03 | 0.01 | 96 | 1011.3 |
| 20260507103033 | 56 | 0 | 0.0 | 0.0 | 0.00 | 0.03 | 0.01 | 96 | 1011.2 |
| 20260507102517 | 57 | 0 | 0.0 | 0.0 | 0.00 | 0.03 | 0.01 | 96 | 1011.2 |
| 20260507102014 | 56 | 0 | 0.0 | 0.0 | 0.00 | 0.03 | 0.01 | 96 | 1011.0 |
| 20260507101537 | 56 | 0 | 0.0 | 0.0 | 0.00 | 0.03 | 0.01 | 96 | 1011.0 |
| 20260507101017 | 57 | 0 | 0.0 | 0.0 | 0.00 | 0.03 | 0.01 | 96 | 1010.7 |
| 20260507100513 | 57 | 0 | 0.0 | 0.0 | 0.00 | 0.03 | 0.01 | 96 | 1010.8 |
| 20260507100035 | 57 | 0 | 0.0 | 0.0 | 0.00 | 0.03 | 0.01 | 96 | 1011.2 |
| 20260507095514 | 57 | 0 | 0.0 | 0.0 | 0.00 | 0.03 | 0.01 | 96 | 1010.9 |
| 20260507095023 | 57 | 0 | 0.0 | 0.0 | 0.00 | 0.03 | 0.01 | 96 | 1011.2 |
| 20260507094536 | 57 | 0 | 0.0 | 0.0 | 0.00 | 0.03 | 0.01 | 96 | 1011.2 |
| 20260507094013 | 57 | 0 | 0.0 | 0.0 | 0.00 | 0.03 | 0.01 | 96 | 1011.1 |
| 20260507093516 | 57 | 0 | 0.0 | 0.0 | 0.00 | 0.03 | 0.01 | 96 | 1011.1 |
| 20260507093038 | 57 | 0 | 0.0 | 0.0 | 0.00 | 0.03 | 0.01 | 96 | 1010.8 |
| 20260507092513 | 57 | 0 | 0.0 | 0.0 | 0.00 | 0.03 | 0.01 | 96 | 1011.1 |
| 20260507092013 | 57 | 0 | 0.0 | 0.0 | 0.00 | 0.03 | 0.01 | 96 | 1011.3 |
| 20260507091532 | 57 | 0 | 0.0 | 0.0 | 0.00 | 0.03 | 0.01 | 96 | 1011.2 |
| 20260507091016 | 57 | 0 | 0.0 | 0.0 | 0.00 | 0.03 | 0.01 | 96 | 1010.9 |
| 20260507090515 | 57 | 0 | 0.0 | 0.0 | 0.00 | 0.03 | 0.01 | 96 | 1010.7 |
| 20260507090034 | 57 | 0 | 0.0 | 0.0 | 0.00 | 0.03 | 0.01 | 96 | 1010.5 |
| 20260507085514 | 57 | 0 | 0.0 | 0.0 | 0.00 | 0.03 | 0.01 | 96 | 1010.4 |
| 20260507085017 | 57 | 0 | 0.0 | 0.0 | 0.00 | 0.03 | 0.01 | 97 | 1010.4 |
| 20260507084533 | 57 | 0 | 0.0 | 0.0 | 0.00 | 0.03 | 0.01 | 97 | 1010.6 |
| 20260507084022 | 57 | 0 | 0.0 | 0.0 | 0.00 | 0.03 | 0.01 | 97 | 1010.8 |
| 20260507083515 | 57 | 0 | 0.0 | 0.0 | 0.00 | 0.03 | 0.01 | 97 | 1010.8 |
| 20260507083038 | 57 | 0 | 0.0 | 0.0 | 0.00 | 0.03 | 0.01 | 97 | 1010.9 |
| 20260507082513 | 57 | 0 | 0.0 | 0.0 | 0.00 | 0.03 | 0.01 | 97 | 1010.9 |
| 20260507082016 | 58 | 0 | 0.0 | 0.0 | 0.00 | 0.03 | 0.01 | 97 | 1011.0 |
| 20260507081532 | 58 | 0 | 0.0 | 0.0 | 0.00 | 0.03 | 0.01 | 97 | 1011.0 |
| 20260507081014 | 58 | 0 | 0.0 | 0.0 | 0.00 | 0.03 | 0.01 | 97 | 1010.8 |
| 20260507080517 | 58 | 0 | 0.0 | 0.0 | 0.00 | 0.03 | 0.01 | 97 | 1010.9 |
| 20260507080033 | 58 | 0 | 0.0 | 0.0 | 0.00 | 0.03 | 0.01 | 97 | 1010.8 |
| 20260507075513 | 58 | 0 | 0.0 | 0.0 | 0.00 | 0.03 | 0.01 | 97 | 1010.7 |
| 20260507075014 | 58 | 0 | 0.0 | 0.0 | 0.00 | 0.03 | 0.01 | 97 | 1010.7 |
| 20260507074542 | 58 | 0 | 0.0 | 0.0 | 0.00 | 0.03 | 0.01 | 96 | 1010.9 |
| 20260507074016 | 58 | 0 | 0.0 | 0.0 | 0.00 | 0.03 | 0.01 | 97 | 1010.8 |
| 20260507073516 | 58 | 0 | 0.0 | 0.0 | 0.00 | 0.03 | 0.01 | 97 | 1011.0 |
| 20260507073033 | 59 | 0 | 0.0 | 0.0 | 0.00 | 0.03 | 0.01 | 97 | 1010.7 |
| 20260507072516 | 59 | 0 | 0.0 | 0.0 | 0.00 | 0.03 | 0.01 | 97 | 1010.7 |
| 20260507072013 | 59 | 0 | 0.0 | 0.0 | 0.00 | 0.03 | 0.01 | 97 | 1010.7 |
| 20260507071551 | 59 | 0 | 0.0 | 0.0 | 0.00 | 0.03 | 0.01 | 96 | 1010.8 |
| 20260507071022 | 59 | 0 | 0.0 | 0.0 | 0.00 | 0.03 | 0.01 | 96 | 1010.8 |
| 20260507070517 | 59 | 0 | 0.0 | 0.0 | 0.00 | 0.03 | 0.01 | 96 | 1010.8 |
| 20260507070036 | 59 | 0 | 0.0 | 0.0 | 0.00 | 0.03 | 0.01 | 96 | 1010.4 |
| 20260507065519 | 60 | 0 | 0.0 | 0.0 | 0.00 | 0.03 | 0.01 | 97 | 1010.6 |
| 20260507065015 | 60 | 0 | 0.0 | 0.0 | 0.00 | 0.03 | 0.01 | 97 | 1010.6 |